Regional Weather Roundup
Issued by NWS Newport/Morehead, NC

Current Version | Previous Version | Text Only | Print | Product List | Glossary Off
Versions: 1 2 3 4 5 6 7 8 9 10 11 12 13 14 15 16 17 18 19 20 21 22 23 24 25 26 27 28 29 30 31 32 33 34 35 36 37 38 39 40 41 42 43 44 45 46 47 48 49 50
000 ASUS42 KMHX 261025 RWRMHX WEATHER ROUNDUP FOR EASTERN NORTH CAROLINA NATIONAL WEATHER SERVICE NEWPORT/MOREHEAD CITY NC 600 AM EDT TUE JUL 26 2016 NOTE: "FAIR" INDICATES FEW OR NO CLOUDS BELOW 12,000 FEET WITH NO SIGNIFICANT WEATHER AND/OR OBSTRUCTIONS TO VISIBILITY NCZ015>017-031-032-045>047-102-103-261100- NORTH COAST CITY SKY/WX TMP DP RH WIND PRES REMARKS EDENTON MOCLDY 82 73 75 SW9G18 29.99R ELIZABETH CITY MOCLDY 79 73 82 SW10 29.97R KITTY HAWK MOSUNNY 80 73 79 SW9 29.97R MANTEO N/A 79 76 90 W10G17 29.99R $$ NCZ045>047-081-094-103-104-261100- CENTRAL COAST CITY SKY/WX TMP DP RH WIND PRES REMARKS FRISCO PTCLDY 80 75 84 W10 30.01S $$ NCZ095-097-098-100-101-261100- SOUTHERN COAST CITY SKY/WX TMP DP RH WIND PRES REMARKS BEAUFORT PTCLDY 80 75 84 W10 30.02S CEDAR ISLAND NOT AVBL JACKSONVILLE PTCLDY 76 72 87 SW8 30.02R PINEY ISLAND NOT AVBL WILMINGTON PTCLDY 77 73 87 SW6 30.03R $$ NCZ011>013-027>030-043-044-078>080-089-090>093-098-261100- COASTAL PLAIN CITY SKY/WX TMP DP RH WIND PRES REMARKS AHOSKIE CLEAR 75 73 93 CALM 29.97S CLINTON PTCLDY 76 74 96 CALM 30.03R ELIZABETHTOWN PTCLDY 77 75 92 CALM 30.03R GOLDSBORO CLEAR 77 77 100 SW6 30.00R GREENVILLE PTCLDY 77 73 88 SW6 30.01S HAVELOCK PTCLDY 77 73 87 SW7 30.03S KENANSVILLE NOT AVBL KINSTON CLEAR 77 73 88 SW8 30.01S NEW BERN CLEAR 76 73 91 SW6 30.02S RICHLANDS PTCLDY 75 73 93 S6 30.03S ROCKY MOUNT CLEAR 76 73 91 S7 29.99S WASHINGTON NOT AVBL WHITEVILLE CLEAR 74 72 93 CALM 30.03S $$ AMZ130-135-150-152-154-156-158-170-250-252-270-ANZ085-086-088-633-658-670-261100- MARINE OBSERVATIONS STATION/POSITION TIME TEMP WIND PRES WAVE SWELL AIR SEA DIR/SP/G HT/PER HT/PER (UTC) (F) (DEG/KT/KT) (MB) (FT/S) (FT/S) CHESAPEAKE LIGHT NOT AVBL 64 E VA BEACH 0950 81 80 240/ 17/ 21 1013.6 4/ 6 DUCK 1000 81 61 240/ 16/ 21 1014.1 2 E DUCK 1011 65 N/A 1/ 8 OREGON INLET 1000 81 85 230/ 17/ 21 1015.0 13E OREGON INLT 1000 81 N/A 3/ 5 2/ 8 HATTERAS CG 1000 80 83 230/ 9/ 13 1015.8 DIAMOND BUOY 0950 83 85 250/ 19/ 21 1015.9 5/ 5 CAPE LOOKOUT 1000 82 250/ 14/ 17 1016.4 BEAUFORT LAB 1000 81 83 240/ 6/ 10 1016.0 30 SE NEW RVR IN 1008 83 85 260/ 14/ 19 1016.9 30 SE NEW RVR IN 0925 85 N/A 4/ 5 27 SE WRIGHTSVLE 1008 83 84 250/ 14/ 19 1017.3 5 SE WRIGHTSVLE 1008 80 81 260/ 8/ 10 1018.1 225 S CAPE HAT 0950 82 84 190/ 12/ 14 1018.2 2/ 8 2/ 8 41 SE CHARLESTON 0950 84 86 230/ 12/ 14 1017.0 2/ 4 2/ 8 $$

USA.gov is the U.S. government's official web portal to all federal, state and local government web resources and services.